Regional Weather Roundup
Issued by NWS Kansas City/Pleasant Hill, MO

Home | Current Version | Previous Version | Graphics & Text | Print | Product List | Glossary Off
Versions: 1 2 3 4 5 6 7 8 9 10 11 12 13 14 15 16 17 18 19 20 21 22 23 24 25 26 27

000
ASUS43 KEAX 311210
RWREAX

WEATHER ROUNDUP FOR EASTERN KANSAS AND NORTHWEST MISSOURI
NATIONAL WEATHER SERVICE KANSAS CITY/PLEASANT HILL MO
700 AM CDT TUE MAY 31 2016

KSZ040-057-103>105-MOZ028-029-037-043-311300-
...KANSAS CITY METROPOLITAN AREA...

CITY           SKY/WX    TMP DP  RH WIND       PRES   REMARKS
K.C. INTL      PTSUNNY   64  61  90 SE7       29.94F
6HR MIN TEMP:  60; 6HR MAX TEMP:  65;

K.C. DOWNTOWN  CLOUDY    66  62  87 E6        29.94F
6HR MIN TEMP:  64; 6HR MAX TEMP:  66; 6HR PCP:  0.03;

LEES SUMMIT    CLOUDY    63  61  93 E8        29.96S
6HR MIN TEMP:  62; 6HR MAX TEMP:  64;

OLATHE - IXD   CLOUDY    63  62  97 CALM      29.94F
6HR MIN TEMP:  61; 6HR MAX TEMP:  63;

OLATHE - OJC   MOSUNNY   62  60  93 E6        29.94F
6HR MIN TEMP:  60; 6HR MAX TEMP:  62;

LAWRENCE       MOSUNNY   63  62  97 E3        29.92F

$$

MOZ001>008-011>017-020>025-030>033-038>040-044>046-053-054-311300-
...NORTHERN AND CENTRAL MISSOURI...

CITY           SKY/WX    TMP DP  RH WIND       PRES   REMARKS
ST. JOSEPH     CLOUDY    64  61  90 S6        29.92F
6HR MIN TEMP:  62; 6HR MAX TEMP:  66;

MOSBY          CLOUDY    63  61  94 SE5       29.96S
WARRENSBURG    LGT RAIN  63  61  94 CALM      29.97S
WHITEMAN AFB   LGT RAIN  64  64 100 S3        29.97R
6HR MIN TEMP:  60; 6HR MAX TEMP:  64; 6HR PCP:  0.01;

CLINTON        LGT RAIN  64  64 100 SE5       29.97R
SEDALIA        LGT RAIN  65  62  90 S3        29.98R
6HR MIN TEMP:  64; 6HR MAX TEMP:  65; 6HR PCP: TRACE;

WARSAW         NOT AVBL
CHILLICOTHE      N/A     64  62  93 CALM      29.98F
6HR MIN TEMP:  59; 6HR MAX TEMP:  64; 6HR PCP:  0.02;

KIRKSVILLE     CLOUDY    64  62  93 S3        30.00R
6HR MIN TEMP:  61; 6HR MAX TEMP:  64;


$$

MOZ041-047>049-056>058-063>065-088>090-097-311300-
...EASTERN AND SOUTHERN MISSOURI...

CITY           SKY/WX    TMP DP  RH WIND       PRES   REMARKS
ST. LOUIS INTL LGT RAIN  72  62  71 S15G23    30.01R
6HR MIN TEMP:  70; 6HR MAX TEMP:  72; 6HR PCP: TRACE;

SPIRIT OF STL  CLOUDY    67  64  90 SW3       30.00R
COLUMBIA       CLOUDY    65  63  93 SE5       29.97S
JEFFERSON CITY CLOUDY    65  64  97 SE3       29.98R
ROLLA          CLOUDY    63  61  93 E8        29.98R
SPRINGFIELD    CLOUDY    65  62  90 SE9       29.95S
BRANSON        CLOUDY    63  63 100 CALM      29.98S FOG
JOPLIN         CLOUDY    66  64  93 SE5       29.94S
WEST PLAINS    PTSUNNY   65  61  87 N3        30.00R

$$

IAZ060-094-KSZ022-034>040-054-083-096-NEZ052-066-093-311300-
...KANSAS...SOUTHEAST NEBRASKA AND IOWA...

CITY           SKY/WX    TMP DP  RH WIND       PRES   REMARKS
TOPEKA         MOCLDY    64  61  90 CALM      29.91F
6HR MIN TEMP:  62; 6HR MAX TEMP:  66;

MANHATTAN      CLOUDY    65  61  87 CALM      29.87F
EMPORIA        CLOUDY    60  60 100 S3        29.92S
CHANUTE        MOCLDY    63  62  97 CALM      29.92S FOG
WICHITA        LGT RAIN  63  60  90 N9        29.94S
OMAHA          CLOUDY    67  62  84 N7        29.90R
LINCOLN        CLOUDY    65  58  78 W7        29.94R
FALLS CITY     LGT RAIN  65  61  87 W8        29.91R
LAMONI         CLOUDY    61  59  93 S5        29.96S
DES MOINES     CLOUDY    66  59  78 S7        29.94R

$$





USA.gov is the U.S. government's official web portal to all federal, state and local government web resources and services.